| time (UTC) | temp C | wind direction | speed KPH | gust KPH | rain 1hr cm | rain 24hr cm | rain mn cm | humidity % | barometer mb |
| 20260506143224 | 20 | 350 | 4.8 | 0.0 | 0.00 | 0.00 | 0.00 | 60 | 1005.0 |
| 20260506141958 | 20 | 340 | 8.0 | 0.0 | 0.00 | 0.00 | 0.00 | 60 | |
| 20260506141808 | 20 | 20 | 4.8 | 0.0 | 0.00 | 0.00 | 0.00 | 56 | 1005.0 |
| 20260506140225 | 20 | 310 | 9.7 | 0.0 | 0.00 | 0.00 | 0.00 | 56 | 1005.0 |
| 20260506133224 | 20 | 170 | 12.9 | 0.0 | 0.00 | 0.00 | 0.00 | 52 | 1005.0 |
| 20260506132307 | 21 | 0 | 9.7 | 0.0 | 0.00 | 0.00 | 0.00 | 49 | 1005.0 |
| 20260506131958 | 22 | 310 | 8.0 | 0.0 | 0.00 | 0.00 | 0.00 | 38 | |
| 20260506131809 | 22 | 320 | 4.8 | 0.0 | 0.00 | 0.00 | 0.00 | 43 | 1005.0 |
| 20260506130219 | 22 | 260 | 11.3 | 0.0 | 0.00 | 0.00 | 0.00 | 40 | 1006.0 |
| 20260506123216 | 22 | 180 | 9.7 | 0.0 | 0.00 | 0.00 | 0.00 | 40 | 1006.0 |
| 20260506121957 | 23 | 210 | 8.0 | 0.0 | 0.00 | 0.00 | 0.00 | 36 | |
| 20260506120225 | 22 | 0 | 8.0 | 0.0 | 0.00 | 0.00 | 0.00 | 43 | 1006.0 |
| 20260506113216 | 22 | 0 | 8.0 | 0.0 | 0.00 | 0.00 | 0.00 | 43 | 1006.0 |
| 20260506111943 | 22 | 190 | 8.0 | 0.0 | 0.00 | 0.00 | 0.00 | 40 | |
| 20260506110218 | 20 | 260 | 11.3 | 0.0 | 0.00 | 0.00 | 0.00 | 49 | 1007.0 |
| 20260506103216 | 21 | 240 | 16.1 | 0.0 | 0.00 | 0.00 | 0.00 | 49 | 1007.0 |
| 20260506102144 | 21 | 240 | 19.3 | 0.0 | 0.00 | 0.00 | 0.00 | 46 | |
| 20260506100221 | 20 | 220 | 20.9 | 0.0 | 0.00 | 0.00 | 0.00 | 49 | 1007.0 |
| 20260506093217 | 20 | 260 | 20.9 | 0.0 | 0.00 | 0.00 | 0.00 | 45 | 1007.0 |
| 20260506091943 | 20 | 260 | 22.5 | 0.0 | 0.00 | 0.00 | 0.00 | 45 | |
| 20260506090220 | 18 | 230 | 22.5 | 0.0 | 0.00 | 0.00 | 0.00 | 52 | 1007.0 |
| 20260506083216 | 17 | 250 | 22.5 | 0.0 | 0.00 | 0.00 | 0.00 | 55 | 1007.0 |
| 20260506081941 | 17 | 250 | 22.5 | 0.0 | 0.00 | 0.00 | 0.00 | 55 | |
| 20260506080227 | 18 | 250 | 20.9 | 0.0 | 0.00 | 0.00 | 0.00 | 55 | 1007.0 |
| 20260506073216 | 17 | 260 | 24.1 | 0.0 | 0.00 | 0.00 | 0.00 | 63 | 1007.0 |
| 20260506071943 | 17 | 260 | 22.5 | 0.0 | 0.00 | 0.00 | 0.00 | 63 | |
| 20260506070226 | 17 | 250 | 20.9 | 0.0 | 0.00 | 0.00 | 0.00 | 63 | 1007.0 |
| 20260506061944 | 16 | 250 | 19.3 | 0.0 | 0.00 | 0.00 | 0.00 | 67 | |
| 20260506060219 | 16 | 250 | 16.1 | 0.0 | 0.00 | 0.00 | 0.00 | 67 | 1007.0 |
| 20260506050225 | 15 | 250 | 12.9 | 0.0 | 0.00 | 0.00 | 0.00 | 77 | 1007.0 |
| 20260506043210 | 12 | 0 | 0.0 | 0.0 | 0.00 | 0.00 | 0.00 | 93 | 1006.0 |
| 20260506042142 | 12 | 240 | 3.2 | 0.0 | 0.00 | 0.00 | 0.00 | 87 | |
| 20260506040220 | 12 | 260 | 3.2 | 0.0 | 0.00 | 0.00 | 0.00 | 87 | 1006.0 |
| 20260506033209 | 12 | 270 | 9.7 | 0.0 | 0.00 | 0.00 | 0.00 | 87 | 1006.0 |
| 20260506031943 | 13 | 260 | 11.3 | 0.0 | 0.00 | 0.00 | 0.00 | 82 | |
| 20260506030219 | 12 | 250 | 9.7 | 0.0 | 0.00 | 0.00 | 0.00 | 87 | 1006.0 |
| 20260506023209 | 12 | 250 | 11.3 | 0.0 | 0.00 | 0.00 | 0.00 | 87 | 1006.0 |
| 20260506021943 | 12 | 220 | 8.0 | 0.0 | 0.00 | 0.00 | 0.00 | 87 | |
| 20260506020221 | 12 | 220 | 4.8 | 0.0 | 0.00 | 0.00 | 0.00 | 87 | 1005.0 |
| 20260506013210 | 13 | 240 | 11.3 | 0.0 | 0.00 | 0.00 | 0.00 | 87 | 1006.0 |
| 20260506012044 | 13 | 240 | 14.5 | 0.0 | 0.00 | 0.00 | 0.00 | 87 | |
| 20260506010219 | 13 | 240 | 14.5 | 0.0 | 0.00 | 0.00 | 0.00 | 82 | 1006.0 |
| 20260506003216 | 15 | 300 | 19.3 | 0.0 | 0.00 | 0.00 | 0.00 | 77 | 1006.0 |
| 20260506001941 | 15 | 300 | 22.5 | 0.0 | 0.00 | 0.00 | 0.00 | 77 | |
| 20260506000220 | 15 | 290 | 22.5 | 0.0 | 0.00 | 0.00 | 0.00 | 82 | 1006.0 |
| 20260505233209 | 17 | 280 | 27.4 | 0.0 | 0.00 | 0.00 | 0.00 | 67 | 1006.0 |
| 20260505231941 | 17 | 220 | 8.0 | 0.0 | 0.00 | 0.00 | 0.00 | 59 | |
| 20260505230226 | 17 | 230 | 8.0 | 0.0 | 0.00 | 0.00 | 0.00 | 59 | 1005.0 |
| 20260505223209 | 16 | 110 | 9.7 | 0.0 | 0.00 | 0.00 | 0.00 | 67 | 1004.0 |
| 20260505221941 | 17 | 110 | 11.3 | 0.0 | 0.00 | 0.00 | 0.00 | 59 | |
| 20260505220221 | 16 | 110 | 11.3 | 0.0 | 0.00 | 0.00 | 0.00 | 63 | 1004.0 |
| 20260505213209 | 17 | 90 | 8.0 | 0.0 | 0.00 | 0.00 | 0.00 | 67 | 1004.0 |
| 20260505212032 | 17 | 90 | 8.0 | 0.0 | 0.00 | 0.00 | 0.00 | 63 | |
| 20260505210232 | 16 | 90 | 4.8 | 0.0 | 0.00 | 0.00 | 0.00 | 72 | 1004.0 |
| 20260505203217 | 16 | 0 | 3.2 | 0.0 | 0.00 | 0.00 | 0.00 | 72 | 1004.0 |
| 20260505201958 | 17 | 140 | 3.2 | 0.0 | 0.00 | 0.00 | 0.00 | 67 | |
| 20260505200240 | 17 | 120 | 4.8 | 0.0 | 0.00 | 0.00 | 0.00 | 67 | 1004.0 |
| 20260505193217 | 16 | 110 | 8.0 | 0.0 | 0.00 | 0.00 | 0.00 | 72 | 1004.0 |
| 20260505192026 | 17 | 100 | 3.2 | 0.0 | 0.00 | 0.00 | 0.00 | 63 | |
| 20260505190232 | 17 | 0 | 3.2 | 0.0 | 0.00 | 0.00 | 0.00 | 63 | 1004.0 |
| 20260505183217 | 17 | 280 | 4.8 | 0.0 | 0.00 | 0.00 | 0.00 | 63 | 1004.0 |
| 20260505181959 | 18 | 290 | 14.5 | 0.0 | 0.00 | 0.00 | 0.00 | 59 | |
| 20260505180219 | 18 | 280 | 14.5 | 0.0 | 0.00 | 0.00 | 0.00 | 59 | 1004.0 |
| 20260505173224 | 22 | 250 | 20.9 | 0.0 | 0.00 | 0.00 | 0.00 | 46 | 1004.0 |
| 20260505171942 | 22 | 140 | 8.0 | 0.0 | 0.00 | 0.00 | 0.00 | 35 | |
| 20260505170219 | 22 | 0 | 3.2 | 0.0 | 0.00 | 0.00 | 0.00 | 38 | 1004.0 |
| 20260505163224 | 23 | 150 | 11.3 | 0.0 | 0.00 | 0.00 | 0.00 | 36 | 1004.0 |
| 20260505162058 | 25 | 140 | 14.5 | 0.0 | 0.00 | 0.00 | 0.00 | 31 | |
| 20260505160219 | 23 | 130 | 16.1 | 0.0 | 0.00 | 0.00 | 0.00 | 38 | 1004.0 |
| 20260505153224 | 26 | 110 | 4.8 | 0.0 | 0.00 | 0.00 | 0.00 | 29 | 1004.0 |
| 20260505151957 | 27 | 90 | 11.3 | 0.0 | 0.00 | 0.00 | 0.00 | 28 | |
| 20260505150226 | 26 | 100 | 11.3 | 0.0 | 0.00 | 0.00 | 0.00 | 31 | 1004.0 |